Wind_Speed
14 15 15 14 14 13 13 14 13 12 12 12 12 12 12 12 12 12 12 12 12 12 12 12 12 12 12 12 12 13 13 13 14 14 14 15 16 17 17 18 18 18 19
14 15 15 15 14 14 14 14 13 13 13 13 13 13 13 13 13 13 13 12 12 12 12 12 13 12 12 12 13 13 13 13 13 13 14 15 16 17 17 17 18 18 18
16 16 16 16 16 15 15 14 14 13 14 14 14 15 15 15 14 14 13 13 13 13 13 12 13 12 13 13 13 13 13 13 13 14 14 15 16 16 16 17 18 18 18
17 17 17 17 17 17 16 15 14 14 14 14 15 16 15 15 15 14 14 14 14 14 13 13 13 13 13 13 13 13 13 13 14 14 14 15 16 15 15 16 17 18 18
17 17 17 17 17 17 17 16 16 16 16 16 16 16 16 15 15 15 15 15 14 14 14 14 14 14 13 13 13 13 13 14 14 14 14 15 15 15 15 15 16 17 17
17 17 18 18 18 18 18 18 17 17 17 17 17 16 16 16 15 15 16 16 16 15 14 14 14 14 14 14 14 14 14 14 14 15 15 15 15 15 15 16 16 17 17
17 18 18 19 19 19 19 19 18 19 19 18 17 17 17 16 16 15 16 16 16 16 15 16 15 15 16 15 15 15 15 15 15 14 15 15 15 15 16 16 16 17 17
17 17 19 19 19 19 19 19 19 19 18 18 18 17 17 16 16 16 16 17 17 17 17 17 17 17 17 17 17 16 16 16 16 15 15 16 16 16 16 16 17 17 17
17 18 19 19 19 19 19 19 19 19 18 18 18 18 17 17 17 17 17 17 17 18 18 18 18 18 18 18 18 17 17 17 17 17 16 16 16 17 17 18 17 17 17
18 18 18 19 20 20 19 19 19 19 19 19 18 18 18 19 18 18 18 18 18 19 19 19 19 19 19 19 19 19 18 18 19 19 18 18 18 17 18 18 17 17 17
18 18 18 18 19 20 20 20 20 20 20 20 19 20 19 19 19 19 19 19 19 19 19 19 20 20 20 20 19 19 18 18 19 19 19 20 20 19 18 18 18 17 17
19 19 19 19 19 19 20 20 20 20 20 20 20 20 20 20 20 20 19 20 20 20 20 20 20 19 19 19 19 19 19 19 19 19 20 20 20 20 20 19 19 19 18
19 19 19 19 19 19 20 20 20 20 20 20 20 20 20 20 21 20 19 19 20 20 20 20 19 20 19 19 19 20 19 20 20 20 21 21 20 20 20 20 20 20 20
19 20 20 20 20 20 20 20 20 20 20 20 20 19 19 20 21 20 20 20 19 19 20 20 19 20 20 20 20 20 20 21 21 21 21 21 21 21 20 20 20 21 21
18 18 19 20 20 20 21 21 21 21 20 20 20 20 20 21 20 20 20 20 20 20 20 20 20 20 20 20 20 20 21 21 22 21 21 21 21 21 21 21 21 21 21
19 19 19 20 20 20 21 21 21 21 21 21 22 22 21 21 20 21 21 21 21 21 21 21 21 20 20 20 20 21 21 21 22 22 22 22 22 22 21 20 20 20 21
20 20 20 20 20 21 21 22 22 22 22 22 22 22 21 21 21 22 22 22 22 21 21 21 21 21 21 21 21 21 21 21 21 21 22 22 22 22 22 22 21 21 22
22 21 21 20 20 21 22 22 22 22 22 23 22 22 22 21 22 21 21 22 22 21 22 22 22 21 21 22 22 22 22 22 22 23 23 23 23 23 22 22 23 23 24
23 22 22 22 22 22 22 22 22 23 23 23 23 22 22 22 22 21 21 22 22 22 23 23 23 23 23 23 23 23 23 24 24 24 24 24 24 24 24 24 24 24 24
24 24 23 23 22 23 23 23 23 23 23 23 23 23 23 23 23 23 23 23 23 24 24 25 25 25 25 25 25 25 25 25 25 25 25 25 25 25 25 25 25 25 26
26 25 24 23 23 23 24 24 24 24 24 24 24 24 24 24 25 25 25 25 25 25 25 25 26 26 26 26 26 26 26 25 26 26 26 27 27 27 27 27 27 27 27
25 25 25 24 24 24 25 25 25 25 25 25 25 25 25 25 25 26 26 26 26 26 26 26 26 26 26 27 27 27 27 27 27 27 28 28 29 28 28 28 28 28 28
27 26 26 26 26 26 26 25 25 26 26 26 26 26 26 26 26 27 27 27 27 26 26 27 27 27 28 28 28 28 28 28 28 29 29 30 30 30 29 29 28 28 29
27 27 27 27 27 27 27 27 27 27 27 27 27 27 27 27 27 27 28 28 28 28 28 28 29 29 29 29 29 29 30 30 30 30 30 30 30 30 30 30 30 30 30
27 27 27 28 28 28 28 28 28 29 28 28 28 27 27 27 27 28 28 29 29 29 29 29 29 29 29 29 29 30 30 30 30 31 31 31 31 31 31 31 30 30 30
27 28 28 28 28 29 29 29 29 29 29 29 29 28 29 30 30 30 30 30 30 30 30 30 30 30 30 30 30 30 31 31 31 31 31 31 31 31 31 31 31 31 31
Wind_Direction
257 256 256 258 261 263 265 266 266 261 257 259 260 262 264 264 265 266 267 268 271 273 274 274 273 272 272 273 274 276 275 276 273 271 273 276 274 271 269 268 267 266 264
256 256 256 257 259 263 265 265 264 262 261 260 261 264 265 264 263 266 268 270 271 273 275 275 273 273 276 275 275 277 276 281 279 277 276 275 275 275 271 269 267 267 265
257 258 257 258 261 264 266 264 263 264 265 263 264 266 267 265 264 266 268 269 271 273 272 274 274 275 277 278 277 277 279 281 282 282 281 278 277 276 272 272 271 270 268
258 257 257 260 261 263 265 264 262 262 265 266 268 267 266 264 262 263 265 268 270 272 272 273 274 275 276 278 280 280 281 282 284 285 284 282 282 281 276 274 271 271 269
259 258 259 260 260 261 261 262 261 261 263 265 266 266 263 262 260 260 263 266 269 273 274 273 272 274 276 277 281 283 285 284 283 283 283 282 282 283 281 280 278 274 271
259 259 258 258 259 260 261 263 264 262 262 264 264 265 263 262 261 260 262 264 267 270 272 273 274 274 276 277 280 284 285 283 283 284 285 284 283 281 281 282 283 279 274
262 259 259 260 260 261 262 261 261 262 262 262 262 264 264 261 259 260 263 265 266 267 268 271 272 274 275 275 278 281 282 282 282 284 286 286 284 283 284 284 284 281 277
263 262 261 260 261 262 262 262 262 262 261 260 261 262 263 262 262 263 265 267 267 268 269 270 270 272 273 273 275 277 278 279 281 283 284 285 284 284 285 285 283 280 277
265 265 264 262 261 262 261 262 261 262 262 261 260 261 262 262 264 264 265 266 267 269 270 269 269 272 273 273 273 275 275 276 278 278 278 281 283 285 285 285 282 280 275
266 266 264 263 262 261 260 260 260 263 263 263 260 259 261 261 262 263 265 266 266 269 270 270 270 271 271 272 273 272 272 273 276 277 279 281 283 283 284 284 281 279 276
267 267 265 264 262 260 259 260 263 263 263 263 261 260 261 261 262 263 264 264 266 267 269 271 272 273 272 272 272 272 273 275 277 280 282 282 282 281 282 281 279 278 277
267 267 266 264 261 260 260 260 261 262 262 263 262 260 262 263 263 263 263 264 266 267 269 270 273 273 274 273 273 273 275 277 279 281 282 282 281 280 280 280 278 277 276
265 265 264 262 261 261 260 259 259 261 261 262 262 262 261 260 262 263 264 265 265 267 269 272 273 273 274 275 277 276 276 278 280 282 282 281 280 279 279 280 279 277 276
263 262 261 260 258 259 260 258 260 261 261 261 261 261 260 261 263 263 263 264 264 266 268 270 272 274 275 275 276 277 277 279 281 283 283 281 279 278 278 278 278 278 275
263 262 260 259 258 259 260 260 261 262 261 261 261 260 261 264 265 263 263 263 264 266 267 269 272 273 274 275 277 276 277 279 280 281 283 282 280 278 278 279 278 276 275
265 264 262 262 260 261 261 262 263 262 261 261 260 260 263 265 265 264 265 264 266 268 270 270 272 274 275 277 278 278 277 278 279 280 282 282 281 280 278 277 276 276 275
265 265 263 262 262 262 264 265 265 264 261 261 263 261 263 264 264 265 266 266 266 269 271 272 272 274 276 277 279 280 279 278 278 279 280 281 281 280 276 275 275 275 275
264 263 261 261 261 261 262 263 264 263 263 263 263 264 263 263 263 264 266 266 266 268 269 272 272 273 275 277 279 281 280 279 279 279 279 280 280 279 278 277 276 275 276
264 263 261 260 261 262 262 264 264 263 263 262 263 263 264 262 261 264 265 266 267 269 271 272 272 273 276 277 278 279 281 281 280 279 280 280 279 280 278 277 277 276 277
263 263 262 262 262 262 263 263 263 263 262 263 263 263 264 262 263 265 266 267 268 271 272 271 271 272 274 276 277 278 280 280 279 278 279 279 279 279 279 277 277 277 277
265 265 265 264 262 262 263 262 262 262 263 264 264 265 266 264 264 265 267 268 269 270 270 271 271 272 273 276 277 277 278 280 279 277 277 278 279 279 279 278 277 276 276
264 264 264 264 264 264 264 263 262 262 263 264 265 265 266 265 265 268 269 270 270 269 269 271 272 274 274 275 276 277 277 279 279 277 277 278 278 278 278 278 278 277 276
263 264 264 263 264 264 264 264 262 262 263 264 265 267 266 266 266 269 270 270 270 269 270 271 272 274 276 277 276 276 276 278 279 278 278 278 278 278 277 276 277 277 276
263 264 265 265 265 265 264 263 262 262 262 264 265 266 267 266 267 269 270 270 270 270 270 272 273 274 276 278 277 276 277 278 279 278 276 277 278 278 277 276 276 276 276
264 265 266 266 266 265 264 265 264 262 261 263 264 265 268 269 269 271 271 271 270 270 271 272 273 274 276 277 277 277 278 278 279 278 277 277 278 278 277 277 276 275 275
265 266 266 266 266 265 265 265 266 264 263 265 266 267 268 268 269 271 271 271 270 271 271 272 273 274 276 276 276 276 277 279 279 279 279 279 279 279 278 277 276 275 273
Height
5837 5837 5837 5838 5838 5838 5838 5838 5838 5838 5838 5838 5838 5838 5838 5838 5838 5837 5837 5836 5836 5835 5835 5835 5834 5834 5833 5832 5831 5831 5830 5829 5828 5828 5827 5827 5826 5825 5825 5824 5824 5824 5824
5833 5834 5834 5834 5834 5835 5834 5834 5835 5835 5835 5835 5835 5835 5835 5835 5835 5834 5834 5833 5833 5832 5832 5831 5831 5830 5830 5829 5828 5827 5827 5826 5825 5824 5824 5823 5823 5821 5820 5820 5820 5819 5819
5829 5830 5830 5831 5831 5831 5831 5831 5831 5831 5831 5832 5832 5832 5832 5832 5832 5831 5831 5830 5830 5829 5829 5828 5827 5827 5826 5826 5825 5824 5823 5822 5822 5821 5820 5819 5818 5817 5817 5815 5815 5814 5814
5825 5826 5826 5827 5827 5827 5827 5827 5828 5828 5828 5828 5828 5828 5828 5828 5828 5828 5827 5827 5827 5826 5825 5825 5824 5823 5823 5822 5821 5821 5820 5819 5818 5817 5816 5815 5814 5813 5812 5812 5811 5810 5809
5821 5821 5822 5823 5823 5823 5823 5823 5824 5824 5824 5824 5824 5824 5824 5824 5824 5824 5824 5824 5823 5823 5822 5821 5821 5820 5819 5819 5818 5817 5816 5815 5814 5813 5812 5811 5810 5809 5808 5807 5806 5805 5804
5816 5817 5817 5818 5818 5819 5819 5819 5819 5820 5820 5820 5820 5820 5820 5820 5820 5820 5820 5820 5819 5819 5818 5818 5817 5816 5816 5815 5814 5813 5812 5811 5810 5809 5808 5807 5806 5805 5804 5803 5802 5800 5799
5811 5812 5812 5813 5813 5814 5814 5814 5815 5815 5815 5815 5815 5815 5815 5815 5815 5815 5815 5815 5815 5815 5814 5814 5813 5812 5811 5810 5810 5809 5808 5807 5806 5805 5804 5803 5802 5800 5799 5798 5796 5795 5794
5807 5807 5807 5808 5808 5809 5809 5809 5809 5810 5810 5810 5810 5811 5811 5811 5811 5811 5811 5811 5810 5810 5810 5809 5809 5808 5807 5806 5805 5805 5804 5803 5802 5801 5800 5798 5797 5796 5795 5793 5792 5790 5789
5802 5802 5802 5802 5803 5803 5804 5804 5804 5805 5805 5805 5805 5806 5806 5806 5806 5806 5806 5806 5806 5805 5805 5804 5804 5803 5802 5801 5801 5800 5799 5798 5798 5796 5795 5794 5793 5791 5790 5788 5787 5786 5784
5797 5797 5797 5797 5797 5798 5798 5798 5799 5799 5800 5800 5800 5800 5800 5801 5801 5801 5801 5801 5800 5800 5800 5799 5798 5798 5797 5796 5795 5795 5794 5793 5792 5791 5790 5789 5788 5786 5785 5783 5782 5781 5780
5791 5791 5792 5792 5792 5792 5793 5793 5793 5794 5794 5795 5794 5795 5795 5795 5795 5795 5795 5795 5795 5794 5794 5794 5793 5792 5792 5791 5790 5789 5788 5787 5787 5786 5785 5784 5782 5781 5780 5778 5777 5776 5775
5786 5786 5786 5786 5786 5787 5787 5787 5788 5788 5788 5789 5789 5789 5789 5789 5789 5789 5789 5789 5789 5789 5788 5788 5787 5787 5786 5785 5784 5783 5783 5782 5781 5780 5779 5778 5776 5775 5774 5773 5772 5771 5770
5780 5780 5780 5780 5781 5781 5781 5782 5782 5782 5782 5783 5782 5783 5783 5783 5783 5783 5783 5783 5783 5783 5782 5782 5781 5781 5780 5779 5779 5778 5777 5776 5775 5774 5773 5772 5771 5770 5769 5768 5767 5766 5765
5774 5774 5774 5774 5775 5775 5775 5775 5776 5776 5776 5776 5776 5777 5777 5777 5777 5776 5777 5777 5777 5776 5776 5776 5775 5775 5774 5774 5773 5772 5771 5770 5769 5768 5767 5766 5765 5763 5762 5762 5761 5760 5759
5768 5768 5768 5768 5769 5769 5769 5769 5770 5770 5770 5770 5770 5770 5770 5770 5770 5770 5770 5770 5770 5770 5770 5770 5769 5769 5768 5768 5767 5766 5765 5764 5763 5761 5760 5759 5758 5757 5756 5755 5755 5754 5753
5762 5762 5762 5762 5762 5762 5763 5763 5763 5763 5763 5764 5764 5764 5764 5764 5764 5764 5764 5764 5764 5764 5764 5763 5763 5763 5762 5761 5760 5759 5758 5757 5756 5755 5754 5752 5751 5750 5750 5749 5748 5747 5747
5755 5755 5755 5756 5756 5756 5756 5756 5756 5756 5757 5757 5757 5757 5757 5757 5758 5758 5758 5758 5758 5758 5757 5757 5757 5756 5756 5755 5754 5753 5751 5750 5749 5748 5747 5746 5745 5744 5743 5742 5741 5741 5740
5748 5749 5749 5749 5749 5749 5749 5750 5750 5750 5750 5750 5750 5751 5751 5751 5751 5751 5751 5751 5751 5751 5751 5751 5750 5750 5749 5748 5747 5746 5745 5744 5743 5741 5740 5739 5738 5737 5736 5735 5734 5734 5733
5741 5741 5742 5742 5742 5742 5742 5742 5743 5743 5743 5743 5744 5744 5744 5744 5744 5745 5744 5744 5745 5745 5744 5744 5744 5743 5742 5741 5740 5739 5738 5737 5735 5734 5733 5732 5731 5730 5729 5728 5727 5726 5725
5734 5734 5734 5735 5735 5735 5735 5735 5735 5736 5736 5736 5737 5737 5737 5737 5737 5738 5738 5738 5738 5737 5737 5737 5736 5736 5735 5734 5733 5732 5731 5729 5728 5727 5726 5725 5723 5722 5721 5720 5719 5718 5718
5726 5726 5727 5727 5727 5727 5727 5728 5728 5728 5729 5729 5729 5730 5730 5730 5730 5730 5730 5730 5730 5730 5729 5729 5728 5728 5727 5726 5725 5724 5723 5722 5720 5719 5718 5717 5715 5714 5713 5712 5711 5710 5709
5718 5718 5718 5719 5719 5719 5719 5720 5721 5721 5721 5721 5721 5722 5722 5722 5722 5722 5722 5722 5722 5722 5721 5721 5720 5720 5719 5718 5717 5716 5715 5714 5712 5711 5710 5709 5707 5706 5705 5704 5703 5702 5701
5709 5710 5710 5711 5711 5711 5711 5712 5712 5713 5713 5713 5713 5713 5714 5714 5714 5714 5714 5714 5713 5713 5713 5712 5712 5711 5710 5710 5709 5708 5706 5705 5704 5703 5701 5700 5698 5697 5696 5695 5694 5693 5692
5701 5701 5701 5702 5702 5702 5703 5703 5704 5704 5704 5705 5705 5705 5705 5705 5706 5706 5705 5705 5705 5704 5704 5704 5703 5703 5702 5701 5700 5699 5698 5696 5695 5693 5692 5691 5689 5688 5687 5686 5685 5684 5684
5692 5692 5692 5693 5693 5693 5694 5694 5695 5695 5695 5696 5696 5696 5696 5696 5696 5697 5697 5696 5696 5696 5696 5695 5695 5694 5693 5692 5691 5689 5688 5687 5685 5684 5682 5681 5680 5679 5678 5677 5676 5675 5674
5683 5683 5683 5684 5684 5684 5685 5685 5685 5685 5686 5687 5687 5687 5687 5687 5687 5687 5687 5687 5687 5687 5686 5686 5685 5684 5683 5682 5681 5680 5679 5678 5676 5675 5673 5672 5671 5670 5669 5667 5666 5665 5665